Tracking 29892 objects as of 21-Nov-2024
HD Live streaming from Space Station
objects crossing your sky now

FENGYUN 1C DEB

Track FENGYUN 1C DEB now!
10-day predictions


NORAD ID: 36203
Int'l Code: 1999-025DUC
Perigee: 604.8 km
Apogee: 741.5 km
Inclination: 99.1 °
Period: 98.1 minutes
Semi major axis: 7044 km
RCS: 0.0118 m2 (small)
Launch date: May 10, 1999
Source: People's Republic of China (PRC)
Launch site: Taiyaun Space Center, China (TSC)

Note: This is SATELLITE DEBRIS
Your satellite tracking list
Your tracking list is empty




NASA's NSSDC Master Catalog

Two Line Element Set (TLE):
1 36203U 99025DUC 24319.44279571  .00014856  00000-0  23946-2 0  9997
2 36203  99.0829 210.1754 0097054 292.7425  66.3542 14.68448131576373
Source of the keplerian elements: AFSPC